This demonstration page uses our WeatherBlox Daily Observations layout. Learn more.

Left ArrowRight Arrow

Hourly Observations for September 23, 2015

Temp ( °F °C ) Dew Point ( °F °C ) Humidity (%) Winds ( mph kmh ) Pressure ( in mb ) Visibility ( mi km ) Precip ( " mm )
12:59 am 00:59 Cloudy 73 22.8 66 18.9 79 79 NNE 14 22 30.14 1021 8 13 0.00 0.00
1:59 am 01:59 Mostly Cloudy 72 22.2 65 18.3 79 79 NNE 15 24 30.14 1021 8 13 0.00 0.00
2:59 am 02:59 Mostly Cloudy 71 21.7 64 17.8 79 79 NNE 14 22 30.12 1020 8 13 0.00 0.00
3:59 am 03:59 Partly Cloudy 71 21.7 63 17.2 76 76 NNE 10 17 30.12 1020 9 14 0.00 0.00
4:59 am 04:59 Mostly Clear 70 21.1 61 16.1 73 73 NE 14 22 30.12 1020 10 16 0.00 0.00
5:59 am 05:59 Mostly Clear 70 21.1 62 16.7 76 76 NE 14 22 30.13 1020 10 16 0.00 0.00
6:59 am 06:59 Partly Cloudy 70 21.1 63 17.2 79 79 NNE 17 28 30.14 1021 8 13 0.00 0.00
7:59 am 07:59 Partly Cloudy 72 22.2 64 17.8 76 76 NNE 15 24 30.15 1021 8 13 0.00 0.00
8:59 am 08:59 Mostly Cloudy 72 22.2 64 17.8 76 76 NNE 14 22 30.16 1021 9 14 0.00 0.00
10:59 am 10:59 Cloudy 74 23.3 64 17.8 71 71 NE 17 28 30.18 1022 9 14 0.00 0.00
11:59 am 11:59 Cloudy 75 23.9 63 17.2 66 66 NE 20 31 30.19 1022 8 13 0.00 0.00
12:59 pm 12:59 Mostly Cloudy 75 23.9 63 17.2 66 66 NE 14 22 30.18 1022 8 13 0.00 0.00
1:59 pm 13:59 Mostly Cloudy 75 23.9 63 17.2 66 66 NE 18 30 30.16 1021 8 13 0.00 0.00
2:16 pm 14:16 Mostly Cloudy 75 23.9 63 17.2 66 66 NNE 14 22 30.15 1021 8 13 0.00 0.00
2:28 pm 14:28 Mostly Cloudy 75 23.9 64 17.8 69 69 NNE 16 26 30.15 1021 8 13 0.00 0.00
2:59 pm 14:59 Mostly Cloudy 76 24.4 64 17.8 67 67 NNE 18 30 30.14 1021 8 13 0.00 0.00
3:15 pm 15:15 Mostly Cloudy 74 23.3 64 17.8 71 71 NNE 17 28 30.15 1021 9 14 0.00 0.00
3:59 pm 15:59 Mostly Cloudy 74 23.3 63 17.2 69 69 NNE 14 22 30.15 1021 9 14 0.00 0.00
4:59 pm 16:59 Mostly Cloudy 74 23.3 63 17.2 69 69 NE 12 19 30.15 1021 9 14 0.00 0.00
5:59 pm 17:59 Mostly Cloudy 73 22.8 61 16.1 66 66 ENE 17 28 30.15 1021 9 14 0.00 0.00
6:59 pm 18:59 Mostly Cloudy 71 21.7 60 15.6 68 68 NE 20 31 30.15 1021 9 14 0.00 0.00
7:59 pm 19:59 Mostly Cloudy 70 21.1 60 15.6 71 71 NE 17 28 30.15 1021 10 16 0.00 0.00
8:59 pm 20:59 Mostly Cloudy 70 21.1 60 15.6 71 71 NE 14 22 30.16 1021 10 16 0.00 0.00
9:59 pm 21:59 Mostly Cloudy 70 21.1 61 16.1 73 73 NE 14 22 30.16 1021 10 16 0.00 0.00
10:59 pm 22:59 Mostly Cloudy 70 21.1 61 16.1 73 73 NE 13 20 30.17 1022 10 16 0.00 0.00
11:59 pm 23:59 Mostly Cloudy 69 20.6 61 16.1 76 76 NE 12 19 30.16 1021 10 16 0.00 0.00

Powered by AerisWeather